Track COSMOS 2292 now! 10-day predictions COSMOS 2292 is classified as:
1 23278U 94061A 19046.94518899 +.00000542 +00000-0 +45345-4 0 9991 2 23278 082.9779 069.4148 0880183 004.6923 356.1815 13.56388649193690